LOT65X EDDF-EPWA

Flight info

Callsign LOT65X
Flight time N/A
Altitude 41000
Route SULUS6F/25C SULUS L984 OKG DCT BALTU DCT LEGAZ DCT LAGAR DCT OKENO Q277 AGAVA
Aircraft B772/H-SDE2E3FGHIJ5LORVWXY/LB1D1

Departure

Time N/A
Airport Frankfurt Main Airport (EDDF)

Arrival

Time 2026-05-04 20:28
Airport Warsaw Chopin Airport (EPWA)
Time Latitude Longitude Altitude Speed Heading
2026-05-04 19:47 50.61019 14.55047 40966 ft 491 kts 72°
2026-05-04 19:47 50.63009 14.64994 40963 ft 491 kts 72°
2026-05-04 19:48 50.64991 14.74949 40956 ft 492 kts 72°
2026-05-04 19:48 50.67115 14.85105 40961 ft 491 kts 69°
2026-05-04 19:49 50.69328 14.94142 40963 ft 491 kts 68°
2026-05-04 19:49 50.71786 15.04328 40960 ft 492 kts 68°
2026-05-04 19:50 50.74003 15.13518 40965 ft 492 kts 68°
2026-05-04 19:50 50.76541 15.24144 40969 ft 492 kts 68°
2026-05-04 19:51 50.78882 15.34009 40986 ft 492 kts 68°
2026-05-04 19:51 50.81377 15.44086 41001 ft 492 kts 66°
2026-05-04 19:52 50.83958 15.54058 41000 ft 491 kts 66°
2026-05-04 19:52 50.86524 15.64053 40993 ft 491 kts 66°
2026-05-04 19:53 50.88999 15.73755 40985 ft 491 kts 67°
2026-05-04 19:53 50.91404 15.83794 40971 ft 492 kts 72°
2026-05-04 19:54 50.93166 15.93407 40961 ft 492 kts 73°
2026-05-04 19:54 50.95017 16.03657 40951 ft 492 kts 73°
2026-05-04 19:55 50.96845 16.13845 40950 ft 491 kts 73°
2026-05-04 19:55 50.98639 16.23895 40949 ft 491 kts 73°
2026-05-04 19:56 51.00525 16.34525 40949 ft 491 kts 73°
2026-05-04 19:56 51.02354 16.44895 40950 ft 491 kts 73°
2026-05-04 19:57 51.04182 16.55320 40949 ft 491 kts 73°
2026-05-04 19:57 51.05916 16.65264 40948 ft 491 kts 74°
2026-05-04 19:58 51.07788 16.76062 40943 ft 491 kts 74°
2026-05-04 19:58 51.09552 16.86308 40945 ft 491 kts 74°
2026-05-04 19:59 51.11325 16.96656 40931 ft 491 kts 74°
2026-05-04 19:59 51.12906 17.05936 40944 ft 490 kts 74°
2026-05-04 20:00 51.14724 17.16671 40944 ft 490 kts 74°
2026-05-04 20:00 51.16482 17.27113 40944 ft 490 kts 74°
2026-05-04 20:01 51.18221 17.37508 40945 ft 490 kts 74°
2026-05-04 20:01 51.19789 17.46933 40942 ft 490 kts 74°
2026-05-04 20:02 51.21562 17.57658 40946 ft 489 kts 74°
2026-05-04 20:02 51.23330 17.68417 40948 ft 489 kts 75°
2026-05-04 20:03 51.24977 17.78500 40932 ft 489 kts 75°
2026-05-04 20:03 51.26688 17.89038 40954 ft 490 kts 75°
2026-05-04 20:04 51.28407 17.99696 40955 ft 489 kts 75°
2026-05-04 20:04 51.30098 18.10247 40957 ft 489 kts 75°
2026-05-04 20:05 51.31757 18.20662 40955 ft 488 kts 75°
2026-05-04 20:05 51.33411 18.31122 40958 ft 488 kts 75°
2026-05-04 20:06 51.35050 18.41541 40702 ft 478 kts 75°
2026-05-04 20:06 51.35852 18.46666 40055 ft 480 kts 75°
2026-05-04 20:06 51.36664 18.51869 39313 ft 486 kts 75°
2026-05-04 20:06 51.37476 18.57090 38690 ft 488 kts 75°
2026-05-04 20:07 51.38290 18.62341 38223 ft 485 kts 75°
2026-05-04 20:07 51.39062 18.67339 37768 ft 481 kts 75°
2026-05-04 20:07 51.39870 18.72578 37007 ft 482 kts 75°
2026-05-04 20:07 51.40654 18.77676 36112 ft 486 kts 75°
2026-05-04 20:08 51.41463 18.82964 35143 ft 491 kts 75°
2026-05-04 20:08 51.42278 18.88300 34290 ft 493 kts 75°
2026-05-04 20:08 51.43069 18.93507 33936 ft 485 kts 75°
2026-05-04 20:08 51.43855 18.98698 33239 ft 469 kts 75°
2026-05-04 20:09 51.44602 19.03650 32947 ft 453 kts 75°
2026-05-04 20:09 51.45317 19.08408 32704 ft 437 kts 75°
2026-05-04 20:09 51.45988 19.12879 32506 ft 428 kts 75°
2026-05-04 20:09 51.46670 19.17432 32136 ft 424 kts 75°
2026-05-04 20:10 51.47364 19.22079 31701 ft 422 kts 75°
2026-05-04 20:10 51.48039 19.26613 31277 ft 420 kts 75°
2026-05-04 20:10 51.48711 19.31140 30621 ft 421 kts 75°
2026-05-04 20:10 51.49382 19.35672 29826 ft 419 kts 75°
2026-05-04 20:11 51.50048 19.40183 29012 ft 419 kts 75°
2026-05-04 20:11 51.50721 19.44751 28152 ft 418 kts 75°
2026-05-04 20:11 51.51376 19.49209 27189 ft 417 kts 75°
2026-05-04 20:11 51.52034 19.53706 26218 ft 415 kts 75°
2026-05-04 20:12 51.52683 19.58153 25209 ft 409 kts 75°
2026-05-04 20:12 51.53330 19.62606 24184 ft 405 kts 75°
2026-05-04 20:12 51.53957 19.66922 23174 ft 402 kts 76°
2026-05-04 20:12 51.54590 19.71294 22156 ft 400 kts 76°
2026-05-04 20:13 51.55202 19.75539 21169 ft 395 kts 77°
2026-05-04 20:13 51.55817 19.79816 20206 ft 392 kts 77°
2026-05-04 20:13 51.56334 19.83411 19362 ft 387 kts 77°
2026-05-04 20:13 51.56927 19.87557 18448 ft 383 kts 77°
2026-05-04 20:14 51.57512 19.91719 17824 ft 379 kts 78°
2026-05-04 20:14 51.57903 19.95691 17342 ft 375 kts 86°
2026-05-04 20:14 51.57910 19.99895 16848 ft 372 kts 92°
2026-05-04 20:14 51.57829 20.04019 16364 ft 369 kts 93°
2026-05-04 20:15 51.57725 20.08138 15880 ft 367 kts 93°
2026-05-04 20:15 51.57612 20.12185 15404 ft 365 kts 94°
2026-05-04 20:15 51.57492 20.16234 14934 ft 363 kts 94°
2026-05-04 20:15 51.57366 20.20291 14462 ft 361 kts 94°
2026-05-04 20:16 51.57398 20.24262 13776 ft 367 kts 83°
2026-05-04 20:16 51.58107 20.28186 13263 ft 364 kts 64°
2026-05-04 20:16 51.59460 20.31552 13089 ft 350 kts 48°
2026-05-04 20:16 51.61054 20.34364 12993 ft 336 kts 45°
2026-05-04 20:17 51.62623 20.37058 12913 ft 324 kts 45°
2026-05-04 20:17 51.64172 20.39720 12495 ft 326 kts 45°
2026-05-04 20:17 51.65721 20.42380 11884 ft 334 kts 45°
2026-05-04 20:17 51.67328 20.45141 11240 ft 342 kts 45°
2026-05-04 20:18 51.68953 20.47931 10600 ft 348 kts 45°
2026-05-04 20:18 51.70629 20.50818 9949 ft 353 kts 45°
2026-05-04 20:18 51.72298 20.53695 9294 ft 357 kts 45°
2026-05-04 20:18 51.73999 20.56628 8639 ft 360 kts 46°
2026-05-04 20:19 51.75717 20.59589 7986 ft 363 kts 46°
2026-05-04 20:19 51.77441 20.62564 7340 ft 365 kts 46°
2026-05-04 20:19 51.79119 20.65462 6715 ft 366 kts 47°
2026-05-04 20:19 51.80868 20.68482 6064 ft 366 kts 47°
2026-05-04 20:20 51.82595 20.71477 5421 ft 366 kts 47°
2026-05-04 20:20 51.84328 20.74495 4775 ft 366 kts 47°
2026-05-04 20:20 51.86073 20.77526 4183 ft 363 kts 47°
2026-05-04 20:20 51.87706 20.80370 3986 ft 328 kts 47°
2026-05-04 20:21 51.89167 20.82918 4001 ft 294 kts 46°
2026-05-04 20:21 51.90523 20.85282 4004 ft 281 kts 46°
2026-05-04 20:21 51.93083 20.89754 4004 ft 262 kts 46°
2026-05-04 20:22 51.94312 20.91897 4003 ft 256 kts 46°
2026-05-04 20:22 51.95502 20.93980 4003 ft 247 kts 46°
2026-05-04 20:22 51.96639 20.95976 4002 ft 238 kts 46°
2026-05-04 20:22 51.97752 20.97936 3958 ft 234 kts 46°
2026-05-04 20:23 51.98847 20.99863 3722 ft 229 kts 46°
2026-05-04 20:23 51.99898 21.01708 3429 ft 222 kts 46°
2026-05-04 20:23 52.00930 21.03519 3212 ft 210 kts 46°
2026-05-04 20:23 52.01886 21.05205 3097 ft 194 kts 46°
2026-05-04 20:24 52.02824 21.06617 3047 ft 177 kts 25°
2026-05-04 20:24 52.03982 21.07090 2975 ft 168 kts 352°
2026-05-04 20:24 52.05093 21.06617 2801 ft 164 kts 334°
2026-05-04 20:24 52.06120 21.05830 2569 ft 160 kts 328°
2026-05-04 20:25 52.07077 21.05001 2347 ft 155 kts 327°
2026-05-04 20:25 52.08031 21.04163 2127 ft 153 kts 327°
2026-05-04 20:25 52.08964 21.03351 1909 ft 152 kts 327°
2026-05-04 20:25 52.09889 21.02547 1687 ft 151 kts 327°
2026-05-04 20:26 52.10777 21.01772 1487 ft 148 kts 328°
2026-05-04 20:26 52.11701 21.00963 1286 ft 150 kts 327°
2026-05-04 20:26 52.12613 21.00161 991 ft 147 kts 328°
2026-05-04 20:26 52.13337 20.99530 788 ft 138 kts 328°
2026-05-04 20:27 52.14166 20.98811 649 ft 136 kts 329°
2026-05-04 20:27 52.15017 20.98080 539 ft 139 kts 331°
2026-05-04 20:27 52.15717 20.97504 407 ft 125 kts 331°
2026-05-04 20:27 52.16389 20.96880 372 ft 92 kts 331°
2026-05-04 20:28 52.16816 20.96501 372 ft 47 kts 332°
2026-05-04 20:28 52.17012 20.96331 372 ft 31 kts 333°
2026-05-04 20:28 52.17224 20.96244 372 ft 31 kts 360°
2026-05-04 20:28 52.17353 20.96256 372 ft 10 kts
2026-05-04 20:29 52.17412 20.96338 372 ft 13 kts 77°
2026-05-04 20:29 52.17348 20.96440 372 ft 15 kts 159°
2026-05-04 20:29 52.17323 20.96460 372 ft 1 kts 153°
2026-05-04 20:29 52.17303 20.96476 372 ft 5 kts 153°
2026-05-04 20:30 52.17258 20.96513 372 ft 8 kts 153°
2026-05-04 20:30 52.17193 20.96567 372 ft 12 kts 153°
2026-05-04 20:30 52.17108 20.96640 372 ft 15 kts 152°
2026-05-04 20:30 52.17008 20.96727 372 ft 17 kts 150°
2026-05-04 20:31 52.16892 20.96831 372 ft 19 kts 151°
2026-05-04 20:31 52.16771 20.96941 372 ft 14 kts 153°
2026-05-04 20:31 52.16697 20.97001 372 ft 11 kts 153°
2026-05-04 20:31 52.16685 20.97010 372 ft 0 kts 153°
2026-05-04 20:32 52.16679 20.97017 372 ft 2 kts 135°
2026-05-04 20:32 52.16684 20.97050 372 ft 5 kts 58°
2026-05-04 20:32 52.16711 20.97121 372 ft 9 kts 59°
2026-05-04 20:32 52.16726 20.97166 372 ft 0 kts 65°
2026-05-04 20:33 52.16730 20.97181 372 ft 0 kts 65°
2026-05-04 20:34 52.16734 20.97193 372 ft 0 kts 65°
2026-05-04 20:36 52.16736 20.97198 372 ft 2 kts 55°
2026-05-04 20:37 52.16761 20.97216 372 ft 5 kts
2026-05-04 20:37 52.16810 20.97187 372 ft 9 kts 330°
2026-05-04 20:37 52.16879 20.97120 372 ft 13 kts 323°
2026-05-04 20:37 52.16956 20.97017 372 ft 15 kts 329°
2026-05-04 20:38 52.17000 20.96977 372 ft 5 kts 333°
2026-05-04 20:38 52.17043 20.96942 372 ft 4 kts 333°
2026-05-04 20:38 52.17055 20.96932 372 ft 4 kts 333°
2026-05-04 20:38 52.17081 20.96913 372 ft 3 kts 354°
2026-05-04 20:39 52.17118 20.96932 372 ft 7 kts 41°
2026-05-04 20:39 52.17137 20.96980 372 ft 0 kts 60°
2026-05-04 20:39 52.17140 20.96988 372 ft 0 kts 62°